Wind_Speed
18 18 18 18 18 18 18 17 16 16 16 16 16 16 17 16 16 16 16 15 15 16 16 16 17 18 18 18 19 19 20 21 23 24 24 24 23 23 23 24 24 25 25 25 25 25 26 27 26 24 24 25 24 24 24 24 25 26 29 32 35 35 33 28 22 19 18 19 19 17 20 21 21 23 24 23 23 24 25 23 23 22 22 22 22 20 17 16
19 18 18 19 19 19 18 18 16 16 15 14 15 15 16 16 16 15 16 16 15 15 15 16 17 17 18 18 19 19 20 21 22 23 23 24 24 24 24 24 24 25 25 26 25 25 26 26 26 25 25 25 26 26 25 24 24 27 29 32 36 36 33 27 23 20 17 18 19 18 22 23 21 23 23 22 23 25 27 27 25 22 21 21 23 21 19 19
18 18 18 19 19 20 19 18 17 16 15 14 14 14 15 15 16 15 15 15 16 16 16 16 16 17 17 18 18 19 20 20 22 22 21 22 23 24 24 24 24 24 25 26 26 25 26 26 26 26 25 25 26 27 27 25 25 27 28 32 36 34 30 24 19 21 23 23 22 18 20 23 22 23 23 20 23 25 27 31 28 24 23 22 23 24 23 22
18 18 18 18 19 20 20 19 17 16 15 14 14 14 14 14 15 15 15 15 15 15 15 16 16 16 17 17 17 18 19 20 21 19 18 20 21 21 22 22 23 23 23 24 25 26 25 26 26 25 26 25 25 27 28 26 25 26 29 34 32 25 24 23 19 23 28 27 26 20 16 23 27 27 28 23 23 26 27 32 30 26 25 23 23 24 25 25
18 18 17 18 18 19 20 19 18 17 16 15 14 13 13 14 14 15 15 16 15 15 15 15 15 15 15 16 17 18 19 19 20 18 18 19 20 20 21 21 22 22 21 21 22 23 24 24 24 24 25 24 23 26 28 26 24 27 30 34 31 22 17 20 20 25 29 28 29 23 13 21 29 29 31 27 26 26 26 29 28 27 25 24 24 24 26 26
18 17 16 17 18 18 19 19 19 17 16 15 15 14 13 13 13 14 15 15 15 15 15 15 15 15 16 17 17 18 19 18 19 20 21 21 20 20 19 20 21 21 21 21 20 20 21 21 22 21 23 24 23 24 24 20 21 28 31 32 33 30 21 18 20 25 29 29 31 28 18 19 24 27 30 29 27 26 25 26 26 26 26 25 25 24 26 26
16 16 16 16 17 17 18 19 18 18 17 16 15 15 14 14 13 13 13 14 14 14 15 15 15 16 17 18 18 19 19 19 19 21 21 21 20 19 19 19 18 19 20 20 19 19 19 19 21 20 21 21 21 22 21 18 23 30 33 32 32 32 28 22 22 26 31 33 33 31 27 24 23 26 29 29 29 28 28 27 26 25 26 26 25 25 25 26
15 15 15 15 16 16 17 17 17 17 17 17 17 16 15 14 12 11 12 13 14 14 15 15 16 17 17 18 19 20 19 18 19 20 20 21 21 19 19 18 17 17 16 17 17 17 17 19 21 20 20 19 18 21 23 24 28 31 34 32 30 30 31 30 30 30 32 34 36 36 32 29 29 29 28 29 28 29 29 29 28 26 25 25 25 25 25 25
14 14 14 15 15 15 16 16 17 17 17 17 17 17 15 13 12 13 14 14 15 15 16 17 18 19 20 20 21 21 19 19 20 20 20 20 20 20 19 17 16 16 15 15 15 15 17 18 19 19 20 20 20 22 24 26 27 28 33 33 32 30 30 35 37 36 33 33 34 37 38 36 34 33 32 32 31 29 29 29 29 28 27 25 25 25 24 25
13 14 14 14 14 15 15 15 16 16 17 18 18 17 14 12 13 15 17 17 17 17 17 18 19 21 21 21 22 22 21 21 21 20 20 20 20 20 19 17 16 16 14 14 14 14 15 16 16 15 17 19 19 22 23 26 25 26 31 33 35 35 33 38 40 40 38 33 27 28 35 40 40 38 38 38 35 33 31 30 31 30 29 27 26 25 25 25
13 13 13 13 14 15 15 15 16 16 17 17 17 16 14 13 14 17 18 18 18 18 18 19 20 21 21 22 21 21 21 22 22 21 20 20 20 20 19 17 16 15 14 14 14 13 14 14 14 13 15 16 19 22 21 24 26 27 30 32 34 35 37 39 40 41 40 37 29 22 25 33 37 38 41 41 37 36 35 31 31 31 31 29 28 27 25 25
13 13 13 13 14 14 15 15 16 16 16 16 15 15 14 15 16 18 19 19 19 18 19 19 19 20 21 22 20 21 21 21 20 20 20 19 19 18 18 17 15 14 13 13 13 13 13 13 13 13 14 14 17 18 16 20 26 28 30 32 34 33 36 39 39 40 38 38 33 24 25 31 34 36 38 40 38 36 36 34 34 33 32 31 29 28 27 25
12 13 13 13 13 14 15 15 16 16 16 15 14 14 15 16 17 19 19 19 19 18 19 19 19 19 21 21 21 21 19 18 19 20 21 20 18 17 16 15 15 14 13 12 12 11 12 12 12 13 13 15 16 14 14 18 22 24 24 27 31 31 36 38 36 37 37 38 32 24 28 33 37 39 38 37 38 38 38 37 36 35 34 33 31 29 28 26
12 12 12 12 12 13 14 15 16 16 15 15 14 14 15 17 18 19 19 19 18 18 17 17 18 19 20 20 20 20 17 18 20 21 20 19 18 16 15 15 14 13 12 12 10 10 11 11 12 12 12 14 15 15 17 19 20 19 16 18 23 26 34 36 29 29 35 38 31 25 29 32 34 38 38 37 37 38 39 39 37 36 35 34 32 30 29 28
11 11 11 11 12 13 14 15 16 16 15 15 15 15 16 17 18 18 18 18 18 17 16 16 17 18 19 19 18 17 17 20 22 20 19 18 17 16 16 15 13 12 12 11 10 10 10 11 11 11 11 13 13 14 17 17 18 17 14 15 17 21 29 30 23 23 28 29 26 26 30 31 33 33 35 37 37 38 40 40 38 36 36 34 33 32 30 29
10 10 10 11 12 12 13 14 15 16 16 15 16 16 17 18 18 18 18 17 17 16 16 16 16 17 18 18 17 17 20 22 21 18 17 16 16 15 15 14 13 12 11 10 10 9 9 10 10 10 11 11 11 10 11 13 13 14 15 17 16 15 20 22 19 22 24 20 20 26 29 31 36 35 33 35 36 37 40 41 40 37 36 36 34 33 33 31
11 10 10 10 11 12 12 14 15 16 16 16 16 16 17 18 18 17 17 17 16 16 16 14 15 16 16 17 19 21 23 23 19 17 15 14 15 14 14 14 14 13 11 9 9 9 9 9 10 10 9 9 9 6 7 10 10 11 14 17 19 17 16 15 12 15 19 19 20 25 30 32 36 38 36 35 35 36 38 40 41 39 37 37 37 35 35 33
11 10 10 10 10 11 12 13 14 15 16 16 16 16 17 18 18 18 17 16 16 15 13 14 16 16 14 19 23 22 22 21 19 16 15 14 14 13 13 13 13 12 11 9 8 8 8 9 10 8 6 8 9 8 9 9 7 8 9 9 12 15 19 19 14 12 17 19 22 27 34 37 36 37 37 36 35 35 37 39 41 41 39 38 38 37 35 34
11 10 10 10 10 11 11 12 13 15 16 16 16 16 17 17 18 17 15 16 16 13 12 15 17 16 16 22 24 21 20 19 17 15 15 15 15 14 13 13 12 11 10 8 7 7 8 9 9 8 7 8 9 10 13 12 8 10 11 11 10 10 12 16 16 14 15 16 20 27 34 39 40 41 39 36 35 36 36 38 40 41 41 38 37 37 36 34
11 11 10 10 11 11 11 12 13 14 15 16 16 16 17 17 17 17 16 16 15 11 14 19 18 18 20 21 21 20 20 19 17 17 17 17 16 15 14 13 12 11 9 6 6 8 8 9 8 8 7 8 10 10 12 14 13 14 15 16 15 13 12 10 11 12 12 12 15 21 28 34 39 43 42 39 35 34 36 37 37 39 40 38 36 36 36 33
10 10 11 10 11 11 12 12 13 14 15 16 16 17 18 19 19 18 16 16 12 8 16 21 19 20 21 21 21 21 21 20 18 17 16 16 16 14 12 11 8 8 6 4 7 10 10 11 11 9 8 9 13 12 10 15 17 16 14 15 16 16 15 14 15 14 13 15 16 18 22 28 35 39 41 41 38 35 35 36 36 37 39 37 35 35 34 32
10 10 11 10 11 11 12 12 13 14 15 16 17 17 19 19 19 17 15 15 9 6 18 22 21 23 22 21 22 22 23 21 16 13 13 15 13 10 9 7 5 3 2 4 7 10 10 12 11 9 10 13 16 15 12 14 15 14 14 13 16 17 16 14 17 18 17 19 19 20 22 26 31 35 37 39 40 39 37 36 35 35 38 38 36 35 34 33
9 10 10 10 11 11 12 12 12 13 14 16 16 17 18 18 19 17 15 14 6 5 19 24 23 24 22 22 24 24 23 19 13 10 10 11 9 7 7 7 5 3 4 5 7 9 9 8 9 11 13 14 16 16 16 15 15 15 15 15 15 15 14 15 16 16 17 17 17 19 24 28 29 32 36 38 41 42 41 38 36 35 36 38 39 38 36 35
9 10 10 10 11 11 12 12 12 13 13 15 16 18 18 17 17 15 15 13 3 6 20 24 24 23 22 23 25 25 21 14 11 10 10 9 6 4 5 6 6 6 5 6 8 11 11 8 9 12 15 15 14 14 14 15 16 16 16 16 17 15 14 14 15 17 19 18 17 18 22 29 33 33 34 36 40 43 44 42 39 37 36 37 39 40 38 37
9 10 9 10 10 11 12 12 12 13 13 14 15 17 18 17 15 14 15 10 1 8 20 23 23 22 22 24 25 23 17 11 12 12 11 9 5 3 4 5 6 7 6 7 10 13 15 12 12 11 13 14 12 11 11 12 14 14 15 16 18 19 17 16 17 19 20 19 18 15 12 19 30 34 34 35 38 42 45 45 43 40 38 37 38 38 38 38
10 10 10 10 10 11 11 12 12 12 13 13 14 17 17 15 13 13 13 4 1 12 21 21 21 21 23 25 25 22 14 10 13 12 9 7 5 3 3 4 5 6 6 8 10 12 13 11 12 13 13 14 13 12 11 10 13 14 14 14 14 16 18 18 19 16 13 13 14 12 9 11 21 27 29 31 35 40 44 46 46 43 39 38 37 36 36 36
10 10 10 10 10 10 11 12 12 12 13 13 14 16 16 14 13 13 8 2 2 15 20 19 19 19 22 24 24 21 14 10 12 10 8 7 5 3 4 4 6 6 7 9 9 10 9 7 9 10 12 14 15 15 13 11 13 13 12 12 13 14 13 14 17 16 16 18 18 17 15 15 20 24 23 23 27 34 41 45 47 47 43 40 37 35 35 34
10 10 11 11 10 10 10 11 12 12 13 13 13 14 15 13 12 11 5 3 5 15 17 18 19 18 20 22 22 20 14 10 10 9 9 8 6 4 5 4 5 6 7 8 8 9 10 9 8 7 9 12 12 13 12 12 15 16 13 13 15 14 12 13 15 17 19 19 19 21 19 12 16 25 24 23 26 29 36 44 47 49 46 43 39 35 35 33
9 10 11 11 11 10 10 11 11 12 12 12 12 12 13 12 11 9 2 0 9 14 15 18 18 18 19 21 21 19 14 10 9 9 9 7 4 3 4 3 3 5 5 7 9 11 13 12 11 9 10 10 8 9 11 12 15 16 15 17 18 15 16 16 15 19 19 14 16 23 20 11 12 24 28 27 31 33 35 40 44 48 48 46 41 35 34 33
9 9 10 11 11 11 10 10 11 11 11 12 11 11 11 9 10 7 1 3 11 13 15 16 16 18 18 18 19 16 13 11 9 8 7 5 2 2 3 4 4 5 5 8 10 11 12 13 13 13 12 10 9 10 12 14 15 15 15 16 16 16 17 16 15 18 14 9 19 27 26 17 10 19 29 30 33 35 36 38 40 45 49 49 43 35 32 32
9 9 9 10 11 11 10 10 11 11 11 11 10 11 10 7 8 5 0 7 11 11 15 16 14 16 16 16 18 15 13 12 9 7 6 5 3 3 4 4 5 5 7 10 9 8 10 10 11 12 12 12 13 12 12 13 14 16 15 12 11 10 12 13 14 14 6 6 22 30 28 25 16 18 30 32 31 31 32 37 39 41 47 50 45 35 30 29
9 9 9 9 10 11 10 10 11 11 10 10 10 10 8 4 4 4 3 8 9 9 14 14 12 13 14 16 18 15 12 11 9 7 6 6 3 3 4 4 4 3 5 7 8 11 11 8 7 9 11 14 14 13 12 12 13 14 14 11 7 4 5 6 7 6 5 12 27 29 23 22 24 30 36 36 33 29 28 32 36 38 41 46 46 36 28 26
9 9 9 9 10 10 10 10 11 11 10 9 9 9 7 2 1 5 7 7 7 9 13 11 10 11 12 14 17 15 11 11 10 7 5 5 4 2 3 5 7 6 5 6 9 11 10 7 5 6 9 14 16 16 13 11 12 14 15 13 8 3 2 3 4 3 6 16 28 28 19 15 21 31 36 37 34 29 27 28 31 35 36 38 43 38 28 26
9 9 8 8 9 10 10 10 11 11 10 9 7 7 6 2 4 8 8 7 7 9 10 9 9 9 10 12 15 15 11 10 10 7 5 4 4 6 6 5 8 9 8 7 8 6 5 6 5 5 5 9 16 17 13 10 11 14 16 15 13 11 6 2 3 1 3 11 18 17 12 9 16 24 29 31 30 28 30 29 26 31 33 30 35 39 33 28
9 9 9 8 9 10 10 10 10 11 10 9 7 5 4 3 6 9 10 9 9 9 9 8 7 8 9 10 12 14 11 10 9 7 6 5 5 7 8 5 6 9 7 4 3 4 6 6 7 7 6 5 9 12 14 12 10 11 14 16 17 19 14 9 10 12 11 11 10 10 12 15 21 26 28 28 27 28 30 31 27 28 33 32 33 39 37 31
10 9 9 8 9 10 10 9 10 10 10 10 7 4 4 5 7 9 10 10 9 8 8 8 7 8 8 7 10 12 11 10 8 7 8 7 6 6 6 4 5 8 10 7 2 3 5 6 8 8 5 4 6 10 14 14 10 8 14 19 20 21 18 14 14 17 14 9 9 13 16 21 23 26 31 31 30 29 28 32 30 27 32 35 35 39 38 33
10 9 9 8 9 10 10 9 9 10 10 10 8 5 6 8 8 8 9 10 10 9 8 7 7 7 7 6 8 10 10 9 7 5 6 8 7 6 5 4 4 7 10 9 6 3 4 7 7 4 3 5 7 11 14 17 14 10 13 17 17 17 18 15 9 8 7 5 8 15 19 19 16 18 27 31 32 33 30 30 30 28 32 35 35 39 40 35
10 10 9 8 9 10 10 9 9 9 9 10 9 7 7 8 8 8 9 9 10 9 8 7 6 7 8 7 6 7 7 7 7 4 4 6 7 5 5 4 3 5 7 9 9 5 5 6 5 2 4 5 7 10 12 16 17 14 14 14 12 10 12 13 8 4 5 4 4 9 16 18 20 25 31 30 29 31 30 30 31 30 32 34 34 39 43 40
10 10 8 7 9 10 10 9 9 10 9 10 10 8 8 10 9 9 9 8 9 9 8 7 6 7 8 7 6 5 4 4 5 3 1 4 5 4 4 3 3 4 6 7 8 6 5 5 5 4 5 6 7 12 15 16 17 17 18 17 15 14 13 12 11 7 5 4 4 4 6 9 16 26 34 34 29 24 24 27 32 31 30 33 34 37 42 45
10 10 8 7 9 11 10 9 9 9 10 10 10 9 10 11 10 9 9 9 9 9 8 7 7 7 7 8 7 5 3 2 3 2 1 2 3 3 4 4 3 4 5 5 5 5 5 5 5 4 5 7 8 11 12 13 15 18 21 20 19 21 20 16 18 19 14 6 4 3 3 9 17 17 25 31 27 22 19 21 28 30 29 32 35 35 38 42
10 10 8 9 10 11 11 9 8 10 11 11 10 10 11 12 11 10 10 9 9 9 9 9 8 8 7 8 9 8 5 3 1 0 1 1 2 2 3 4 4 3 4 4 4 5 6 7 8 8 9 10 10 8 9 11 15 16 19 21 20 21 20 14 11 15 15 9 7 5 6 14 21 16 16 26 24 22 17 13 22 29 28 29 34 36 36 38
11 10 9 10 11 12 11 8 7 11 12 11 11 11 12 12 12 11 10 9 9 9 9 9 9 9 7 8 9 10 8 5 2 2 2 2 1 1 2 3 3 4 5 5 5 5 7 9 12 13 13 13 11 9 10 12 15 17 20 22 22 21 22 17 8 7 10 11 14 12 8 10 18 23 10 21 25 23 17 12 18 27 28 28 32 37 38 38
12 11 10 10 11 13 12 7 8 12 12 11 12 12 13 13 12 11 11 10 10 9 9 9 10 10 9 8 8 9 9 6 4 3 3 3 3 4 4 3 3 4 5 6 5 5 6 8 11 13 13 15 15 14 15 15 17 20 21 21 23 24 24 24 22 20 16 15 15 10 5 6 17 26 16 11 22 21 17 15 19 26 29 29 32 37 40 40
13 12 11 11 11 13 11 8 11 14 13 13 13 13 13 13 11 11 12 11 11 10 9 9 10 11 11 10 9 9 9 6 5 5 5 4 4 5 5 6 6 6 5 6 5 5 5 4 7 10 8 9 11 11 13 16 17 20 19 15 17 21 23 24 25 23 15 13 14 7 4 11 18 23 20 9 11 18 16 14 18 24 27 27 30 35 39 41
14 14 12 11 12 13 10 8 12 14 13 14 14 13 12 12 12 12 12 12 12 12 10 9 10 11 11 11 10 9 9 8 8 8 7 7 6 5 5 5 6 7 7 7 8 9 9 7 9 9 5 4 6 6 8 11 13 16 17 15 14 14 15 16 16 14 10 11 15 11 12 19 18 16 18 18 9 8 13 13 15 21 26 26 27 30 34 37
16 16 14 14 14 12 9 10 14 15 15 16 15 13 13 13 13 13 13 13 12 12 12 11 11 11 11 12 12 11 10 10 10 9 9 10 9 6 5 5 6 7 8 10 11 13 15 15 15 15 14 14 15 15 16 18 19 19 19 18 17 13 11 12 13 13 12 14 19 18 16 17 15 15 18 21 19 9 6 12 13 16 23 25 25 27 29 32
18 17 16 16 15 11 11 13 15 15 16 17 16 15 15 14 13 13 13 13 12 12 13 12 11 10 10 11 13 13 11 10 11 11 10 10 10 9 8 8 7 8 8 10 12 14 17 20 18 18 20 21 20 20 21 22 22 22 21 21 20 17 14 15 17 17 14 12 16 16 13 16 17 17 20 20 18 14 5 6 11 12 17 20 22 24 27 31
20 19 18 18 17 16 16 17 17 17 17 17 17 16 15 14 13 13 14 14 14 13 14 13 11 10 11 12 13 13 12 12 13 11 9 9 10 11 12 10 9 10 10 10 12 13 18 22 21 19 21 21 20 19 20 21 22 22 22 22 20 19 18 19 19 18 14 16 18 19 21 22 18 16 17 17 14 12 10 2 7 11 15 18 18 19 22 26
23 22 21 21 21 20 20 20 19 19 18 18 18 17 15 14 14 14 15 16 15 14 15 14 12 12 12 12 13 14 14 14 14 12 12 12 12 13 14 13 12 11 12 12 13 13 16 20 19 18 22 24 21 19 18 18 20 22 23 23 21 20 21 23 23 18 17 23 23 23 25 21 13 12 11 11 11 10 9 5 2 9 14 17 17 16 17 19
26 24 24 25 26 25 23 23 22 21 20 20 19 18 16 16 16 16 16 16 17 17 16 14 14 14 14 13 14 14 14 15 16 16 15 15 14 14 14 14 13 12 13 13 14 15 16 19 18 19 25 27 22 18 16 16 19 25 28 27 26 25 22 22 22 19 20 23 21 20 22 17 9 8 7 6 8 9 7 5 1 4 10 13 14 13 13 14
29 27 27 28 30 30 28 26 24 23 23 22 20 19 18 18 17 18 18 17 17 16 15 13 14 15 16 15 15 13 14 16 17 16 16 16 16 15 15 16 16 15 16 15 15 16 18 21 21 19 23 26 22 17 16 18 23 29 28 21 17 17 14 12 12 12 14 17 17 18 19 14 9 6 4 4 6 7 6 5 3 1 5 8 9 10 10 12
31 31 30 31 33 34 32 30 28 28 27 24 22 21 21 20 20 20 20 19 17 15 16 16 17 18 18 17 16 14 15 16 16 17 18 18 18 17 17 18 19 19 20 19 18 19 19 21 21 17 17 21 19 16 18 20 21 21 16 8 7 8 7 8 12 14 14 14 14 15 14 11 8 7 7 7 7 6 5 4 2 0 3 6 7 8 9 10
Wind_Direction
338 337 335 334 332 329 327 324 323 321 319 319 318 318 318 318 316 314 311 308 304 301 299 297 295 294 292 288 286 283 281 279 278 277 278 278 276 274 270 268 267 266 264 261 259 258 258 256 254 252 250 250 247 244 240 234 230 224 219 220 224 227 228 227 224 228 236 239 231 225 231 222 218 230 228 225 225 224 223 224 225 224 225 226 226 224 218 213
339 339 338 336 335 333 331 329 327 326 325 322 321 320 320 319 318 317 314 312 310 308 306 303 301 299 298 295 293 291 288 285 282 280 281 280 279 277 275 272 268 266 265 263 260 256 256 256 255 252 249 249 247 245 242 235 228 225 222 222 228 230 232 235 232 231 239 243 231 229 240 233 230 241 239 230 226 228 229 226 224 223 224 224 224 223 222 219
340 340 338 337 336 335 333 332 331 330 330 328 326 323 321 321 321 321 318 315 313 312 311 309 306 304 302 300 298 296 293 290 286 284 284 280 279 279 278 276 272 269 265 264 262 258 255 253 253 252 250 248 248 247 244 239 231 227 223 224 231 233 234 234 236 240 238 237 227 224 241 232 222 231 237 229 222 227 228 228 225 222 224 223 223 222 223 226
341 340 339 338 337 335 334 334 333 332 331 331 329 327 325 324 323 321 319 317 314 313 311 310 310 309 307 306 305 302 299 295 292 291 287 281 280 279 279 278 277 274 270 266 263 262 258 254 252 250 249 247 248 248 245 241 237 232 225 227 232 231 239 234 234 245 237 232 223 218 233 226 218 223 229 226 221 225 227 229 227 225 228 226 225 224 225 228
341 341 338 337 336 335 334 333 333 333 333 332 331 330 329 326 324 319 317 317 317 317 316 314 312 311 310 310 309 307 305 300 298 297 292 287 285 282 279 277 276 276 274 271 266 264 262 258 254 249 248 245 243 246 247 243 240 239 230 231 229 215 232 235 232 243 235 228 219 213 220 223 224 224 226 226 223 226 228 230 227 226 230 230 230 227 228 229
340 340 337 336 334 333 333 332 331 332 333 333 333 333 332 327 323 318 317 317 318 318 317 317 315 314 314 312 310 308 306 301 298 296 292 289 286 283 280 276 274 273 272 272 270 266 264 263 259 252 247 243 239 239 244 244 239 241 235 232 228 216 222 226 226 237 230 222 215 212 214 220 228 223 220 223 224 229 233 234 230 228 230 232 234 231 230 231
339 338 337 335 334 333 332 331 330 331 332 333 333 333 331 328 323 318 317 317 316 315 314 314 312 312 311 310 309 306 305 303 299 294 289 287 284 282 280 277 274 272 271 270 269 267 264 263 261 256 250 245 241 236 234 229 227 236 236 230 228 222 224 224 223 230 225 217 212 213 216 220 225 222 220 221 223 231 235 238 235 231 232 231 233 233 232 231
338 338 337 336 335 333 332 330 329 329 330 331 330 330 329 327 323 318 317 317 315 315 313 311 309 309 307 307 306 304 305 304 299 294 290 286 283 281 277 275 275 272 270 269 268 267 262 257 256 256 254 246 239 235 228 225 225 231 237 233 229 225 225 225 222 225 226 219 213 213 216 222 226 224 226 229 231 236 236 238 237 234 234 231 232 233 233 232
337 336 338 338 336 334 332 331 329 329 328 328 327 326 327 325 321 321 322 322 320 318 318 317 315 312 311 311 308 308 308 304 300 296 291 286 283 280 277 275 274 270 267 266 264 263 260 258 256 253 254 250 243 240 235 233 231 232 238 237 232 225 225 227 223 223 227 224 217 217 219 224 231 232 233 237 239 241 239 238 235 234 234 232 231 230 232 233
336 338 340 340 339 337 335 333 331 330 328 326 324 324 325 322 322 325 327 326 323 321 321 319 315 311 311 311 309 309 309 304 302 298 291 286 282 279 278 276 272 269 266 264 261 259 260 261 259 250 249 251 247 245 243 241 238 236 240 240 235 229 226 229 227 224 227 227 220 221 225 226 232 237 238 239 239 239 238 236 233 233 233 232 231 229 230 232
338 340 342 342 341 339 337 335 332 331 329 326 324 323 322 320 322 326 328 326 323 319 316 313 309 307 306 306 306 306 305 302 301 299 294 287 282 279 277 274 270 268 266 264 262 259 259 258 258 250 244 245 246 248 249 247 245 243 244 245 243 237 234 235 235 230 228 229 223 220 232 233 232 236 238 238 236 236 236 233 231 231 231 233 232 230 229 231
340 342 344 344 344 341 338 335 333 333 331 329 326 323 319 317 320 324 326 325 321 315 312 310 307 305 303 304 303 301 302 300 301 301 299 293 284 278 273 271 269 267 266 264 264 261 259 256 254 250 244 245 247 247 249 252 251 249 249 251 249 246 243 241 242 241 236 236 232 226 236 240 237 236 237 237 234 234 234 231 230 230 231 232 234 234 231 231
342 344 345 345 345 342 338 335 335 334 334 332 328 323 320 318 320 323 325 324 320 314 311 309 307 305 303 303 303 303 302 300 304 305 301 294 285 279 273 269 267 266 266 266 266 264 262 259 256 253 250 250 247 241 243 252 256 254 254 257 257 256 250 244 246 251 246 241 236 228 234 239 239 238 237 237 234 232 233 232 231 231 231 233 234 235 234 232
343 345 345 345 344 342 339 337 336 335 335 332 328 325 324 324 325 326 326 324 320 315 313 309 308 306 303 304 305 303 302 305 310 308 301 294 288 282 274 269 269 269 269 269 268 266 266 263 260 258 253 253 250 246 249 250 254 259 264 265 263 263 256 248 250 258 256 251 242 227 231 238 239 240 238 236 234 231 231 233 233 232 232 233 234 234 233 231
342 345 345 343 343 343 342 338 337 336 335 332 329 327 327 328 329 330 328 325 321 318 318 316 313 310 306 307 308 304 305 312 312 307 302 297 291 286 281 278 275 272 271 272 272 268 268 266 263 261 257 257 255 254 255 253 256 260 262 260 259 264 263 258 254 258 261 260 247 225 226 233 236 239 238 236 234 231 231 232 233 233 231 231 231 231 232 231
340 346 345 342 342 344 342 340 339 337 335 332 330 329 329 331 332 332 329 326 326 325 326 327 323 318 313 313 316 312 311 313 312 306 302 299 295 291 288 286 281 275 272 273 274 269 267 266 264 261 260 264 261 261 264 262 262 258 249 248 251 259 271 273 261 252 257 259 238 221 222 228 231 234 235 235 235 232 231 231 232 232 230 229 230 231 232 232
339 344 344 342 342 344 342 341 341 340 338 335 332 331 330 330 332 332 330 331 332 332 335 338 335 327 320 321 322 318 316 317 313 305 301 302 300 296 291 287 284 282 280 274 271 269 266 262 261 261 269 273 256 244 263 260 254 253 247 247 249 248 256 273 263 232 236 246 234 221 221 225 230 232 232 233 234 233 232 231 232 232 230 230 230 231 234 233
337 342 345 342 341 342 342 342 343 343 342 340 337 334 332 333 332 333 334 335 336 336 341 346 343 336 324 323 323 320 319 317 311 302 300 303 301 299 296 290 287 286 286 281 272 268 265 260 256 250 255 271 253 222 228 237 247 270 277 274 269 259 245 250 260 218 199 220 226 218 220 223 228 232 232 232 233 234 233 231 231 232 232 231 231 232 233 234
336 340 344 342 340 341 342 343 343 343 344 344 342 338 336 334 331 333 336 337 339 343 351 350 346 339 326 323 325 323 322 318 311 301 300 303 301 301 299 292 288 287 286 286 286 277 262 255 254 246 235 244 252 240 229 231 270 292 288 293 297 295 260 242 258 243 200 209 221 215 218 222 225 230 232 232 232 234 235 232 231 231 232 231 232 233 233 233
337 340 342 341 341 341 341 343 343 344 344 344 344 341 338 335 335 340 342 341 343 353 359 354 347 340 331 327 327 325 323 320 312 302 299 300 300 300 298 294 288 286 284 275 269 271 263 251 247 249 250 246 246 249 240 239 262 272 268 279 281 287 292 272 272 260 228 237 235 216 218 224 227 231 233 234 232 234 236 236 233 232 232 231 231 232 232 231
339 341 341 341 343 342 341 342 344 345 345 344 344 344 342 342 344 345 344 343 343 359 3 355 347 342 337 332 331 328 325 322 314 305 300 297 298 299 297 295 292 294 299 265 241 251 259 258 247 234 241 253 247 240 232 232 245 253 259 282 280 276 291 294 290 282 262 267 262 239 232 231 231 234 236 237 236 235 236 237 236 233 233 232 230 229 230 229
341 342 341 342 344 343 341 343 345 346 346 345 344 346 347 346 346 345 345 344 339 360 1 355 349 345 340 336 334 332 328 326 321 311 301 296 296 293 283 282 287 294 289 251 245 248 258 263 256 243 243 251 251 244 233 229 241 250 255 272 277 277 288 292 289 284 275 277 276 265 255 245 239 239 239 239 238 237 236 236 237 235 233 232 229 226 227 228
341 342 341 343 343 343 343 343 345 347 347 346 345 347 350 348 347 347 346 343 330 350 355 353 349 344 342 340 338 337 334 331 332 326 316 307 298 282 267 269 271 257 244 245 248 250 257 258 244 237 238 245 250 249 245 243 249 254 255 262 269 273 281 288 291 285 280 283 285 277 269 260 251 246 243 240 239 237 236 237 238 237 235 234 231 228 227 228
339 341 342 343 344 344 344 343 344 347 348 348 347 348 351 350 349 348 345 343 331 345 351 350 347 344 344 343 342 341 337 337 345 343 340 336 325 292 267 268 264 255 253 255 258 255 249 243 241 235 231 238 249 249 247 250 254 258 260 261 260 257 262 279 285 283 286 288 287 285 278 267 257 251 246 242 242 239 236 236 237 238 237 235 233 231 230 229
337 341 341 342 344 344 344 345 344 346 347 349 350 349 350 351 352 351 345 345 17 348 348 347 346 346 346 346 346 345 341 343 346 339 338 340 336 312 275 272 272 265 261 253 257 261 257 251 254 251 239 241 249 245 240 245 251 257 260 261 263 260 259 269 275 279 287 291 290 284 276 271 262 254 250 245 243 242 239 238 236 236 237 237 234 232 231 229
335 339 339 341 344 344 344 346 343 344 346 349 351 350 350 351 354 355 347 351 88 348 344 344 347 349 348 348 348 349 351 349 342 336 339 340 330 314 287 277 278 274 264 257 260 270 273 263 254 256 254 251 251 243 232 235 247 253 254 252 257 261 258 261 265 270 277 284 290 276 249 269 268 258 254 250 245 243 242 240 238 235 235 237 236 235 234 231
333 335 337 338 343 344 346 346 343 343 346 350 352 351 351 351 355 357 359 112 32 344 338 340 348 350 348 349 350 353 358 350 340 335 331 324 314 294 265 274 286 280 267 266 273 281 286 279 261 259 258 255 251 247 237 229 238 247 253 251 250 253 254 259 266 267 266 270 276 272 259 263 264 258 254 250 247 245 243 240 238 236 234 235 237 237 237 234
330 331 334 336 339 343 346 346 344 343 345 348 350 351 351 350 355 1 17 125 345 339 336 339 348 352 352 353 354 357 358 349 340 333 324 310 294 266 256 283 300 288 272 266 267 271 277 279 274 264 252 249 247 249 245 234 236 237 241 254 255 250 247 253 264 267 269 271 270 268 262 256 262 260 255 250 247 244 242 239 236 235 235 234 235 235 237 236
329 329 331 333 336 340 344 345 345 343 344 347 346 349 350 351 358 1 38 78 335 337 339 338 345 353 358 357 355 357 359 354 343 336 331 315 289 252 244 258 272 267 266 269 267 271 276 277 274 261 247 243 236 238 237 234 242 242 241 250 253 252 252 253 256 259 264 264 258 260 253 239 263 262 254 251 248 243 241 239 236 235 235 235 234 234 236 236
329 327 328 331 334 337 341 343 343 340 343 345 342 347 350 352 0 0 75 335 329 334 341 340 344 354 1 2 358 360 4 2 352 342 340 328 304 205 205 210 228 245 262 278 279 283 286 279 265 253 243 237 228 223 224 226 234 243 247 251 255 258 257 257 257 256 261 257 253 256 248 237 255 261 254 253 252 246 242 240 238 236 234 233 233 232 233 234
331 328 325 329 331 333 337 338 337 337 341 343 341 347 347 348 5 16 29 333 329 332 342 341 344 354 2 5 4 6 9 8 360 348 348 340 302 214 210 217 223 250 280 290 297 305 300 285 267 256 241 233 234 230 229 230 230 237 241 243 258 261 250 255 256 250 251 252 255 255 246 235 234 249 255 257 257 253 247 242 239 237 235 233 230 228 230 230
331 329 325 326 328 330 334 334 333 335 338 342 342 348 348 341 10 14 332 330 326 331 343 342 345 356 3 7 10 12 11 12 8 357 354 351 324 227 224 236 233 252 281 294 317 318 311 305 285 263 237 225 232 236 235 238 233 231 230 224 233 242 224 236 239 230 222 242 255 256 244 232 237 250 255 254 255 255 250 244 240 239 237 234 230 224 225 224
331 330 326 324 324 328 333 331 331 332 334 341 342 345 350 338 308 334 334 331 323 334 344 343 347 359 7 8 12 15 13 13 13 5 352 351 348 301 262 243 239 243 244 271 307 313 308 309 299 276 247 224 224 228 229 236 231 224 220 209 202 211 213 224 233 240 231 248 260 257 245 233 241 253 254 247 249 253 250 244 240 238 237 237 232 223 219 221
330 329 326 325 322 325 330 328 328 329 329 336 338 338 349 348 308 323 335 335 330 337 345 346 348 2 13 14 15 15 15 17 14 11 6 355 336 306 289 261 242 244 253 275 291 288 285 297 294 295 282 232 222 219 214 224 233 231 227 215 217 238 258 247 235 257 254 277 277 254 231 220 230 248 250 241 242 247 245 241 235 233 231 232 230 222 219 220
330 329 326 326 322 322 326 326 326 327 325 327 333 335 341 329 311 317 329 335 336 339 342 346 350 3 17 19 17 15 15 17 15 18 18 347 303 295 290 273 238 231 234 252 281 280 278 296 305 296 288 248 223 210 205 220 239 236 226 222 228 238 250 265 271 278 286 301 286 231 218 228 233 247 248 238 241 243 237 233 227 224 221 220 220 217 215 215
329 328 328 326 323 322 323 324 325 324 321 321 325 325 302 300 308 313 323 331 333 336 340 345 346 359 14 15 18 19 15 17 19 18 13 349 319 312 297 273 240 224 214 208 227 300 279 292 314 301 267 224 203 191 198 219 234 218 210 221 230 233 242 258 275 280 280 287 263 230 232 239 242 254 252 245 251 252 240 228 221 219 217 217 217 211 207 207
329 329 330 326 324 325 322 322 323 322 319 317 318 313 294 300 313 318 322 327 327 331 341 346 343 350 1 4 20 23 16 20 23 10 358 344 331 328 307 281 256 236 222 218 234 270 277 290 314 307 236 215 208 200 206 221 229 221 212 223 235 239 244 249 270 293 275 273 255 223 226 236 234 249 255 251 252 254 246 227 216 214 213 214 216 209 202 204
334 330 330 329 328 329 324 319 321 320 317 314 315 316 306 307 316 318 319 323 323 326 334 341 340 343 349 353 13 22 17 22 23 4 332 332 333 334 318 295 258 239 226 220 229 251 292 301 314 300 242 236 229 225 227 229 233 234 230 233 237 243 248 238 234 271 262 263 263 223 230 241 237 241 250 253 252 253 247 228 213 209 211 211 213 209 205 207
342 336 331 332 331 330 326 318 317 321 319 314 316 318 313 311 314 314 315 318 318 318 323 331 333 335 341 340 348 14 23 25 29 30 344 335 338 339 329 299 253 238 234 228 229 248 288 290 289 283 258 256 250 238 236 236 235 233 237 241 240 245 258 249 237 254 269 273 292 260 237 253 259 253 250 252 254 253 250 235 217 208 208 210 210 209 208 210
344 343 338 335 333 330 327 317 313 319 319 313 313 314 311 311 311 309 309 312 314 313 315 320 322 327 336 332 332 354 10 3 25 41 40 21 357 348 351 330 282 252 245 240 241 260 275 268 278 290 266 258 251 240 239 240 236 233 235 239 240 242 253 264 265 263 260 263 300 305 265 291 304 287 252 248 249 247 253 246 223 210 206 207 208 208 207 209
341 345 342 337 335 333 326 315 311 320 320 315 315 315 312 310 310 308 305 307 310 309 310 310 311 321 332 329 326 334 341 331 327 5 359 33 41 31 20 357 330 302 272 256 260 280 281 275 281 282 267 262 261 254 249 242 241 244 245 246 249 248 250 264 276 264 254 254 271 286 287 300 323 329 261 242 240 239 247 247 224 212 207 208 207 205 205 206
335 338 338 337 338 336 328 314 311 321 321 316 317 317 313 309 308 307 303 304 307 305 305 305 306 311 317 321 321 322 325 317 282 271 297 314 318 322 3 3 340 319 303 289 284 287 283 275 274 272 268 271 273 261 253 248 249 254 256 255 255 251 249 249 256 288 299 293 279 275 269 293 343 359 312 239 234 237 239 235 219 210 209 213 210 205 204 205
327 331 332 331 334 335 328 312 313 324 323 319 319 317 313 311 309 306 304 305 304 301 299 302 304 302 302 310 316 316 318 311 282 289 307 295 284 282 289 296 289 292 295 290 284 271 266 266 271 276 273 268 266 263 263 264 259 258 262 262 257 253 250 252 262 280 297 299 286 275 251 291 348 4 354 254 234 236 237 230 215 207 211 215 212 208 205 204
317 323 324 322 327 332 327 318 324 328 326 322 320 316 312 311 308 307 306 305 303 299 295 297 300 299 297 302 308 312 314 307 289 292 301 304 299 289 279 272 272 270 263 268 270 260 255 248 266 285 287 262 257 258 261 264 263 264 271 279 276 269 263 264 272 277 278 283 285 270 253 300 333 356 1 343 244 233 235 233 216 209 214 216 213 211 207 207
308 313 316 314 319 322 317 318 327 327 325 323 320 317 315 313 311 308 307 306 302 297 294 294 298 298 296 298 302 303 300 296 293 291 296 305 305 292 282 273 268 263 256 259 263 264 261 240 239 260 269 254 264 267 270 282 285 278 281 292 297 291 276 264 268 273 267 281 294 291 283 297 320 344 357 6 350 250 229 230 221 211 214 217 218 216 213 214
300 304 307 308 312 312 304 314 323 322 323 323 320 321 319 316 313 310 308 308 304 299 296 296 297 295 294 297 298 298 293 287 287 289 294 301 300 290 281 280 274 268 262 261 263 265 265 257 249 250 253 262 276 283 285 290 290 285 289 296 295 298 287 254 244 259 268 284 296 292 282 293 318 336 342 355 3 351 231 221 223 216 215 217 220 222 223 223
292 295 299 303 306 302 297 308 314 314 316 318 319 322 322 318 314 311 310 308 304 303 299 296 296 292 290 296 298 297 294 286 286 291 293 296 300 298 287 279 274 268 262 260 262 263 264 268 270 266 267 276 286 291 291 288 284 281 286 292 292 292 281 250 244 263 271 277 289 291 286 296 316 331 332 339 353 3 359 215 213 216 218 219 221 226 228 229
284 287 291 294 295 294 296 302 305 307 310 310 311 318 320 317 314 312 310 306 304 304 300 298 298 292 289 295 295 294 296 294 292 293 291 292 297 298 293 287 277 269 265 261 263 263 265 275 284 283 285 292 296 297 297 292 288 284 281 286 288 285 277 264 264 277 271 259 274 289 294 300 316 333 334 337 345 359 11 8 206 210 216 219 223 228 229 230
276 281 285 286 286 288 292 297 299 301 303 302 304 311 315 313 314 314 308 304 303 302 299 299 298 292 291 292 290 292 295 295 293 293 293 293 293 294 295 292 284 275 271 268 271 273 271 279 290 292 293 298 300 302 303 299 297 294 290 292 290 283 279 275 277 280 267 262 274 290 294 300 328 343 337 350 359 358 9 18 210 214 220 222 225 228 228 229
270 276 280 282 282 282 284 289 293 294 295 295 297 304 306 305 311 313 309 303 301 300 298 299 295 291 292 291 289 292 292 289 290 292 294 294 291 292 293 291 287 281 278 278 279 277 273 279 290 296 297 301 306 309 308 307 306 301 299 299 293 285 278 272 275 275 267 269 281 289 291 302 335 343 336 360 0 355 2 12 37 205 220 225 229 233 232 230
266 270 274 278 278 278 279 281 284 287 289 290 294 299 300 300 305 309 308 303 299 299 299 298 294 292 293 291 291 291 286 284 288 288 288 287 287 288 287 284 284 282 280 280 280 279 277 280 291 300 300 302 310 315 311 310 306 301 301 302 294 286 279 269 277 287 283 287 289 280 285 307 325 315 310 317 324 339 349 349 18 138 205 216 223 231 233 231
266 267 269 273 275 274 275 277 279 280 282 285 291 294 294 297 300 303 305 302 299 302 302 298 295 293 292 293 295 292 285 284 287 286 284 285 284 283 280 278 277 278 279 277 274 275 277 281 290 298 296 297 303 308 308 310 308 301 303 319 322 311 300 286 296 307 305 298 288 277 286 311 311 291 288 288 291 307 312 308 329 139 190 197 205 210 213 217
Height
3130 3128 3127 3126 3125 3124 3123 3122 3121 3119 3118 3118 3117 3116 3116 3115 3115 3114 3114 3114 3113 3113 3113 3112 3112 3112 3111 3111 3111 3110 3110 3110 3109 3109 3109 3109 3110 3110 3111 3111 3111 3112 3112 3113 3114 3114 3114 3115 3116 3118 3118 3119 3120 3121 3122 3124 3125 3126 3127 3126 3125 3126 3128 3131 3134 3136 3137 3139 3139 3141 3140 3139 3139 3140 3142 3144 3145 3143 3143 3146 3147 3148 3149 3151 3152 3154 3155 3155
3128 3127 3126 3125 3124 3122 3121 3120 3119 3118 3117 3117 3116 3115 3114 3114 3114 3113 3113 3112 3112 3111 3111 3111 3110 3110 3110 3109 3109 3109 3108 3108 3108 3108 3107 3107 3107 3107 3108 3108 3109 3109 3109 3110 3110 3111 3112 3112 3113 3115 3115 3116 3117 3118 3119 3121 3122 3123 3123 3123 3122 3123 3127 3130 3133 3135 3136 3136 3137 3139 3138 3138 3139 3138 3139 3142 3142 3141 3141 3142 3144 3146 3148 3149 3151 3153 3153 3154
3127 3126 3125 3124 3122 3121 3120 3119 3118 3117 3116 3115 3115 3114 3114 3113 3112 3112 3111 3111 3110 3110 3110 3109 3109 3108 3108 3108 3107 3107 3106 3106 3105 3106 3106 3105 3105 3104 3105 3105 3105 3106 3106 3107 3107 3108 3109 3109 3110 3111 3112 3113 3114 3115 3116 3117 3119 3120 3121 3120 3119 3123 3126 3128 3132 3132 3132 3132 3133 3136 3135 3135 3136 3135 3136 3139 3139 3138 3137 3138 3142 3145 3146 3147 3149 3151 3151 3152
3127 3125 3124 3123 3121 3120 3119 3118 3117 3116 3115 3114 3114 3113 3113 3112 3112 3111 3110 3110 3109 3109 3108 3108 3107 3107 3106 3106 3105 3104 3104 3103 3103 3103 3103 3103 3102 3102 3102 3102 3102 3103 3103 3104 3104 3105 3105 3106 3107 3108 3109 3110 3111 3112 3112 3114 3116 3117 3117 3116 3118 3123 3125 3126 3129 3128 3127 3128 3131 3133 3132 3131 3132 3132 3134 3136 3135 3135 3135 3136 3141 3143 3144 3146 3147 3149 3149 3150
3126 3125 3124 3122 3121 3119 3118 3117 3116 3115 3114 3113 3112 3112 3112 3111 3111 3110 3109 3109 3108 3107 3107 3106 3106 3105 3105 3104 3103 3103 3102 3100 3100 3101 3100 3100 3100 3100 3100 3100 3099 3099 3100 3100 3101 3102 3102 3103 3104 3105 3106 3107 3109 3109 3109 3112 3113 3113 3113 3114 3117 3121 3121 3123 3124 3122 3123 3126 3129 3130 3128 3127 3128 3130 3131 3133 3132 3133 3134 3135 3139 3141 3142 3144 3145 3147 3147 3149
3125 3124 3123 3121 3120 3119 3117 3116 3115 3114 3113 3112 3111 3111 3110 3110 3109 3109 3108 3108 3107 3107 3106 3105 3104 3104 3103 3102 3102 3101 3100 3099 3098 3098 3098 3097 3097 3097 3097 3097 3097 3097 3097 3097 3098 3099 3100 3100 3101 3102 3103 3104 3105 3106 3107 3109 3110 3108 3110 3112 3114 3116 3117 3119 3119 3116 3118 3122 3126 3126 3124 3124 3125 3127 3128 3130 3131 3132 3133 3134 3137 3139 3140 3142 3143 3145 3146 3147
3125 3124 3122 3121 3120 3118 3117 3116 3115 3113 3112 3111 3110 3109 3109 3108 3108 3108 3107 3107 3107 3106 3105 3104 3104 3103 3102 3101 3100 3099 3098 3097 3096 3096 3095 3094 3094 3094 3094 3094 3094 3094 3094 3094 3095 3096 3097 3098 3098 3099 3100 3101 3102 3103 3104 3105 3105 3104 3105 3108 3110 3112 3113 3114 3114 3112 3113 3118 3121 3122 3120 3120 3121 3124 3125 3127 3128 3130 3131 3133 3135 3136 3138 3139 3140 3142 3144 3145
3124 3123 3122 3121 3119 3118 3117 3116 3114 3113 3112 3111 3109 3109 3108 3107 3107 3106 3106 3106 3106 3105 3104 3104 3103 3102 3101 3100 3098 3097 3096 3095 3094 3093 3092 3092 3091 3091 3091 3091 3092 3092 3092 3092 3092 3093 3094 3094 3095 3096 3097 3098 3099 3100 3100 3101 3101 3101 3101 3105 3107 3108 3109 3109 3109 3108 3109 3113 3117 3118 3117 3117 3118 3121 3122 3124 3126 3127 3129 3131 3133 3134 3135 3137 3138 3140 3141 3143
3124 3122 3121 3120 3119 3118 3117 3115 3114 3113 3112 3110 3109 3108 3107 3106 3106 3105 3105 3105 3104 3104 3103 3102 3101 3100 3099 3098 3096 3095 3094 3093 3092 3091 3090 3089 3089 3088 3088 3089 3089 3089 3089 3089 3090 3090 3090 3091 3092 3094 3094 3095 3097 3097 3097 3098 3099 3099 3099 3101 3103 3104 3104 3103 3105 3106 3106 3109 3113 3115 3115 3115 3116 3118 3119 3121 3123 3125 3127 3128 3130 3132 3133 3134 3136 3137 3139 3140
3123 3122 3121 3120 3118 3117 3116 3115 3114 3113 3112 3110 3109 3107 3107 3106 3105 3105 3104 3103 3103 3102 3102 3101 3100 3099 3097 3096 3094 3093 3092 3091 3090 3089 3088 3087 3087 3086 3086 3086 3087 3087 3087 3087 3088 3088 3088 3089 3090 3091 3092 3093 3094 3094 3096 3096 3096 3097 3096 3096 3098 3099 3099 3099 3100 3103 3104 3106 3110 3112 3112 3113 3113 3114 3115 3117 3120 3122 3123 3125 3127 3128 3130 3132 3133 3135 3136 3138
3123 3121 3120 3119 3118 3117 3115 3114 3114 3113 3111 3110 3109 3107 3106 3106 3105 3104 3103 3103 3102 3101 3101 3100 3099 3097 3096 3095 3093 3091 3090 3089 3088 3087 3086 3085 3084 3084 3084 3084 3084 3084 3085 3085 3085 3086 3086 3087 3088 3089 3089 3090 3091 3092 3093 3093 3093 3094 3095 3094 3094 3096 3096 3096 3097 3100 3103 3104 3106 3109 3109 3109 3110 3111 3111 3113 3117 3119 3120 3122 3124 3125 3127 3129 3130 3132 3134 3135
3123 3121 3120 3119 3117 3116 3115 3114 3113 3112 3111 3110 3109 3107 3107 3106 3105 3104 3103 3102 3101 3100 3100 3099 3098 3096 3095 3093 3092 3090 3089 3087 3086 3085 3084 3083 3082 3082 3082 3082 3082 3082 3082 3083 3083 3084 3084 3085 3086 3086 3087 3088 3089 3090 3090 3090 3091 3092 3093 3091 3092 3093 3093 3093 3095 3097 3100 3101 3105 3108 3106 3104 3106 3107 3107 3110 3113 3115 3117 3119 3121 3122 3124 3126 3128 3130 3131 3133
3122 3121 3120 3118 3117 3116 3114 3113 3112 3111 3110 3110 3109 3108 3107 3106 3105 3104 3103 3102 3101 3100 3099 3097 3096 3095 3093 3092 3090 3088 3087 3086 3084 3083 3082 3081 3080 3080 3080 3079 3080 3080 3080 3081 3081 3082 3082 3083 3084 3084 3085 3086 3086 3087 3087 3088 3089 3090 3091 3089 3090 3091 3089 3091 3094 3094 3096 3098 3103 3106 3102 3100 3101 3102 3104 3106 3109 3112 3114 3116 3117 3119 3121 3123 3125 3127 3129 3131
3121 3120 3119 3118 3117 3116 3114 3113 3112 3111 3110 3109 3108 3107 3107 3106 3105 3104 3102 3101 3100 3099 3098 3096 3095 3093 3092 3090 3089 3087 3086 3084 3083 3081 3080 3079 3078 3078 3078 3077 3078 3078 3078 3079 3079 3080 3081 3081 3082 3082 3083 3084 3084 3085 3086 3087 3087 3088 3089 3088 3088 3088 3086 3089 3093 3092 3092 3094 3099 3102 3099 3097 3097 3099 3101 3103 3105 3108 3110 3112 3114 3116 3118 3120 3122 3124 3126 3128
3121 3120 3118 3117 3116 3115 3114 3113 3111 3110 3109 3108 3107 3107 3106 3105 3104 3103 3102 3100 3099 3097 3096 3095 3094 3092 3090 3089 3088 3086 3085 3083 3081 3080 3078 3077 3077 3076 3075 3076 3076 3076 3077 3077 3078 3079 3079 3080 3080 3081 3082 3082 3083 3084 3084 3085 3086 3086 3087 3087 3087 3086 3084 3087 3090 3090 3089 3091 3095 3097 3095 3094 3094 3095 3097 3099 3102 3104 3106 3109 3111 3113 3115 3117 3119 3121 3123 3125
3120 3119 3118 3116 3115 3114 3113 3112 3111 3110 3108 3107 3107 3106 3105 3104 3103 3102 3100 3099 3098 3096 3095 3094 3092 3091 3089 3088 3086 3085 3084 3082 3080 3079 3077 3076 3075 3075 3074 3074 3074 3074 3075 3076 3076 3077 3078 3078 3079 3080 3080 3081 3082 3083 3083 3084 3084 3085 3085 3085 3085 3086 3085 3085 3087 3088 3088 3088 3090 3091 3091 3090 3090 3092 3094 3096 3098 3100 3102 3105 3107 3110 3112 3114 3116 3118 3120 3122
3119 3118 3117 3116 3115 3114 3113 3111 3110 3109 3108 3107 3106 3105 3103 3102 3101 3100 3099 3097 3096 3095 3093 3093 3091 3090 3088 3087 3086 3084 3082 3080 3079 3077 3076 3075 3074 3073 3073 3073 3073 3073 3074 3074 3075 3076 3077 3077 3078 3079 3080 3080 3081 3082 3083 3083 3083 3084 3084 3083 3084 3085 3085 3085 3086 3086 3085 3086 3086 3088 3088 3087 3087 3089 3091 3092 3094 3096 3098 3101 3104 3106 3108 3110 3112 3114 3116 3119
3119 3118 3116 3115 3114 3113 3112 3110 3109 3108 3107 3106 3105 3103 3102 3100 3099 3098 3097 3096 3095 3094 3093 3092 3091 3089 3087 3086 3085 3083 3081 3079 3077 3076 3075 3074 3073 3072 3072 3072 3071 3071 3072 3073 3074 3075 3075 3076 3077 3078 3079 3080 3080 3081 3082 3082 3082 3083 3082 3082 3082 3083 3084 3084 3083 3082 3082 3082 3083 3085 3084 3083 3084 3086 3087 3089 3090 3092 3094 3096 3099 3102 3104 3106 3108 3111 3113 3115
3118 3117 3116 3114 3113 3112 3111 3110 3109 3108 3106 3105 3104 3102 3101 3099 3098 3097 3096 3094 3093 3092 3092 3091 3090 3088 3087 3085 3083 3082 3080 3078 3076 3075 3074 3073 3072 3071 3071 3071 3070 3071 3071 3072 3073 3074 3074 3075 3076 3077 3078 3079 3080 3080 3080 3081 3081 3081 3081 3081 3081 3081 3082 3082 3080 3080 3081 3079 3079 3081 3080 3080 3081 3081 3083 3086 3087 3089 3090 3092 3095 3098 3100 3102 3105 3107 3110 3112
3117 3116 3115 3113 3112 3111 3110 3109 3108 3107 3106 3104 3103 3101 3099 3098 3097 3095 3094 3093 3092 3091 3091 3090 3089 3088 3086 3084 3082 3080 3079 3077 3075 3074 3073 3071 3070 3070 3070 3070 3069 3070 3071 3072 3073 3073 3074 3074 3075 3076 3077 3079 3080 3079 3079 3080 3079 3079 3080 3080 3080 3080 3080 3079 3078 3079 3079 3078 3077 3078 3078 3078 3079 3079 3080 3082 3084 3086 3087 3089 3092 3094 3097 3099 3102 3104 3107 3109
3116 3115 3113 3112 3111 3110 3109 3108 3107 3106 3105 3103 3102 3100 3098 3096 3095 3094 3093 3092 3091 3090 3090 3089 3088 3086 3085 3083 3081 3079 3077 3076 3074 3072 3071 3070 3069 3069 3069 3068 3069 3069 3070 3072 3073 3072 3073 3074 3075 3076 3077 3078 3078 3078 3078 3078 3077 3078 3079 3079 3079 3079 3079 3078 3077 3077 3078 3077 3076 3076 3076 3076 3077 3077 3078 3079 3082 3083 3084 3086 3088 3091 3093 3096 3099 3102 3104 3107
3115 3114 3112 3111 3110 3109 3108 3107 3106 3104 3103 3102 3101 3099 3097 3095 3094 3093 3092 3091 3090 3089 3089 3088 3086 3085 3083 3082 3079 3077 3075 3073 3071 3070 3070 3069 3068 3068 3068 3068 3069 3069 3071 3072 3072 3072 3073 3073 3074 3076 3076 3077 3077 3077 3077 3076 3077 3077 3078 3078 3078 3078 3078 3077 3076 3076 3076 3076 3075 3075 3075 3074 3075 3075 3075 3076 3078 3080 3082 3083 3086 3088 3090 3093 3096 3099 3102 3104
3114 3112 3111 3110 3109 3108 3107 3106 3105 3103 3102 3101 3100 3098 3096 3094 3093 3092 3091 3090 3089 3088 3088 3087 3085 3084 3082 3080 3078 3075 3073 3071 3070 3069 3068 3067 3067 3068 3067 3068 3068 3069 3071 3071 3072 3072 3072 3072 3073 3074 3074 3075 3075 3076 3076 3076 3076 3076 3077 3078 3077 3078 3078 3077 3075 3075 3075 3075 3075 3074 3073 3072 3072 3072 3072 3074 3075 3076 3078 3080 3083 3085 3087 3090 3093 3096 3099 3101
3113 3112 3110 3109 3108 3107 3106 3105 3104 3103 3101 3100 3099 3097 3095 3093 3092 3091 3090 3089 3088 3087 3087 3086 3084 3082 3081 3079 3077 3074 3071 3070 3069 3068 3068 3067 3067 3067 3067 3068 3068 3069 3070 3071 3071 3071 3071 3072 3072 3072 3073 3073 3074 3074 3075 3075 3075 3075 3076 3076 3077 3077 3077 3076 3076 3075 3074 3074 3074 3074 3071 3068 3068 3069 3070 3072 3072 3073 3075 3076 3079 3081 3083 3086 3088 3091 3095 3097
3112 3111 3109 3108 3107 3106 3105 3104 3103 3102 3101 3099 3098 3097 3095 3093 3091 3090 3088 3087 3087 3087 3086 3085 3083 3082 3080 3078 3076 3074 3071 3070 3069 3068 3068 3068 3067 3067 3067 3068 3068 3069 3070 3070 3070 3070 3070 3071 3071 3071 3072 3072 3072 3073 3074 3074 3074 3075 3075 3075 3075 3076 3076 3076 3076 3075 3074 3073 3072 3073 3070 3064 3064 3066 3067 3069 3070 3070 3071 3073 3075 3077 3079 3082 3084 3088 3091 3094
3111 3110 3109 3107 3106 3105 3104 3103 3102 3101 3100 3098 3097 3096 3095 3093 3090 3089 3087 3087 3087 3086 3085 3084 3082 3081 3078 3076 3074 3073 3071 3070 3069 3069 3068 3067 3067 3067 3067 3068 3068 3069 3069 3069 3069 3069 3069 3069 3070 3070 3070 3071 3071 3071 3072 3073 3074 3074 3074 3074 3074 3074 3075 3075 3075 3075 3074 3072 3071 3071 3070 3064 3062 3062 3064 3065 3066 3066 3068 3069 3071 3074 3076 3078 3081 3084 3087 3090
3110 3109 3108 3107 3105 3104 3103 3102 3101 3100 3099 3098 3096 3095 3094 3092 3090 3088 3086 3086 3087 3086 3084 3083 3082 3081 3078 3076 3074 3072 3071 3071 3070 3069 3068 3067 3067 3067 3067 3067 3068 3068 3068 3068 3068 3068 3067 3068 3068 3068 3069 3069 3069 3069 3071 3072 3072 3072 3072 3073 3073 3073 3074 3073 3074 3073 3072 3072 3070 3069 3070 3066 3060 3059 3061 3061 3062 3062 3064 3066 3068 3070 3073 3076 3078 3081 3084 3087
3109 3108 3107 3106 3105 3103 3102 3101 3100 3099 3098 3097 3095 3094 3093 3092 3089 3087 3086 3086 3087 3086 3084 3082 3082 3081 3079 3076 3074 3072 3071 3071 3070 3068 3067 3067 3066 3066 3066 3067 3067 3067 3067 3067 3067 3067 3066 3067 3067 3067 3067 3067 3067 3068 3070 3071 3070 3071 3071 3071 3071 3072 3072 3072 3072 3071 3071 3070 3068 3066 3068 3065 3058 3056 3058 3058 3058 3058 3059 3062 3064 3067 3070 3072 3075 3078 3081 3084
3108 3108 3107 3105 3104 3103 3101 3100 3099 3098 3097 3096 3095 3094 3092 3091 3089 3087 3086 3087 3087 3085 3083 3082 3080 3080 3078 3075 3073 3072 3071 3070 3069 3068 3067 3066 3065 3065 3065 3066 3066 3066 3066 3066 3066 3066 3065 3066 3066 3066 3066 3065 3066 3067 3068 3069 3069 3069 3070 3069 3069 3070 3070 3071 3071 3070 3070 3068 3065 3064 3065 3063 3056 3052 3054 3053 3053 3054 3056 3059 3061 3063 3066 3069 3072 3076 3079 3082
3107 3107 3106 3105 3104 3102 3101 3100 3099 3098 3096 3095 3094 3093 3092 3091 3089 3087 3087 3087 3086 3085 3083 3081 3080 3079 3078 3076 3074 3072 3071 3070 3069 3068 3067 3066 3065 3065 3065 3065 3065 3065 3065 3065 3065 3065 3064 3064 3064 3064 3064 3064 3064 3065 3065 3067 3067 3068 3068 3068 3068 3068 3068 3069 3068 3068 3068 3065 3061 3060 3061 3061 3054 3048 3048 3048 3048 3051 3054 3055 3057 3059 3061 3064 3068 3073 3076 3079
3106 3106 3105 3104 3103 3102 3100 3099 3098 3097 3096 3095 3094 3092 3091 3090 3089 3088 3088 3087 3086 3084 3083 3080 3079 3078 3078 3076 3074 3072 3070 3070 3069 3068 3067 3065 3065 3064 3064 3064 3064 3064 3064 3064 3064 3064 3063 3063 3062 3062 3063 3063 3063 3064 3064 3065 3065 3066 3067 3067 3067 3066 3066 3067 3066 3067 3067 3061 3056 3054 3056 3057 3051 3044 3043 3044 3045 3048 3049 3050 3052 3055 3057 3060 3065 3070 3073 3076
3106 3105 3104 3103 3102 3101 3100 3099 3097 3096 3095 3094 3093 3092 3091 3090 3089 3088 3088 3087 3085 3084 3082 3081 3079 3078 3077 3076 3074 3072 3070 3069 3068 3067 3066 3065 3064 3064 3064 3063 3063 3063 3063 3063 3062 3062 3061 3061 3061 3060 3061 3061 3062 3063 3063 3064 3064 3065 3065 3066 3066 3065 3065 3065 3063 3062 3061 3055 3049 3049 3052 3051 3045 3041 3041 3041 3042 3044 3045 3046 3049 3051 3054 3057 3062 3067 3070 3073
3105 3104 3103 3102 3101 3100 3099 3098 3096 3095 3094 3093 3092 3091 3090 3090 3089 3088 3087 3086 3085 3084 3082 3080 3079 3077 3076 3075 3073 3072 3070 3069 3068 3067 3066 3065 3065 3064 3064 3063 3062 3062 3062 3062 3062 3061 3060 3059 3059 3059 3059 3059 3060 3061 3062 3062 3062 3063 3063 3064 3065 3064 3064 3063 3059 3057 3055 3049 3045 3047 3050 3046 3040 3037 3036 3036 3038 3040 3041 3042 3044 3047 3051 3054 3059 3064 3067 3070
3104 3103 3102 3101 3100 3099 3098 3097 3096 3095 3094 3092 3091 3090 3090 3089 3088 3087 3086 3085 3084 3083 3081 3080 3078 3077 3076 3074 3073 3072 3070 3069 3068 3067 3066 3065 3065 3064 3063 3062 3062 3062 3062 3062 3062 3061 3060 3059 3058 3058 3058 3058 3058 3059 3060 3061 3061 3061 3061 3063 3062 3061 3061 3059 3056 3054 3052 3048 3045 3046 3046 3040 3034 3031 3030 3031 3033 3035 3036 3038 3040 3043 3046 3050 3055 3060 3064 3066
3104 3102 3101 3100 3099 3098 3097 3096 3095 3094 3093 3092 3091 3090 3089 3088 3088 3087 3085 3084 3083 3082 3080 3079 3078 3076 3075 3073 3073 3071 3070 3069 3068 3067 3066 3065 3065 3064 3063 3062 3062 3061 3062 3062 3061 3060 3060 3058 3058 3058 3057 3057 3057 3058 3059 3060 3059 3059 3060 3061 3060 3059 3059 3057 3054 3052 3051 3049 3045 3043 3038 3031 3029 3028 3027 3028 3028 3030 3032 3033 3036 3038 3040 3044 3048 3053 3059 3062
3103 3102 3100 3099 3098 3097 3096 3095 3094 3093 3092 3091 3090 3089 3088 3088 3087 3086 3085 3083 3082 3081 3080 3078 3077 3075 3074 3073 3072 3071 3070 3069 3068 3067 3066 3065 3064 3064 3063 3062 3062 3062 3061 3061 3061 3060 3059 3058 3057 3057 3056 3057 3057 3057 3058 3058 3058 3058 3058 3058 3057 3057 3058 3056 3053 3050 3051 3049 3041 3037 3032 3028 3028 3025 3023 3025 3025 3025 3027 3028 3031 3034 3036 3039 3043 3048 3054 3058
3102 3101 3100 3098 3098 3096 3095 3094 3093 3092 3091 3090 3089 3088 3088 3087 3086 3085 3084 3083 3082 3080 3079 3077 3076 3075 3074 3072 3071 3070 3069 3068 3067 3067 3066 3065 3064 3063 3063 3062 3062 3062 3061 3061 3061 3060 3059 3057 3056 3056 3056 3056 3056 3056 3056 3056 3057 3057 3057 3056 3056 3056 3056 3056 3054 3050 3050 3046 3036 3030 3027 3026 3026 3022 3018 3021 3021 3021 3022 3025 3028 3030 3032 3035 3039 3045 3051 3055
3101 3100 3099 3098 3097 3096 3094 3093 3092 3091 3090 3089 3088 3087 3087 3086 3085 3085 3084 3083 3081 3080 3078 3077 3076 3074 3073 3072 3071 3070 3069 3068 3067 3067 3066 3065 3064 3063 3063 3062 3062 3061 3061 3061 3061 3060 3060 3058 3055 3055 3055 3055 3055 3056 3055 3055 3055 3056 3056 3055 3056 3056 3054 3054 3054 3050 3046 3041 3032 3026 3024 3023 3022 3017 3015 3016 3017 3018 3019 3022 3024 3026 3028 3032 3036 3041 3047 3051
3100 3099 3098 3097 3096 3095 3094 3092 3091 3090 3089 3088 3087 3086 3085 3085 3084 3083 3083 3082 3081 3079 3078 3077 3075 3074 3073 3072 3071 3070 3069 3068 3067 3066 3065 3065 3064 3063 3062 3062 3062 3061 3061 3061 3060 3060 3060 3059 3056 3054 3054 3054 3054 3054 3053 3052 3053 3054 3054 3054 3054 3054 3052 3051 3049 3046 3043 3038 3031 3026 3023 3021 3018 3015 3013 3013 3014 3016 3017 3018 3021 3023 3026 3029 3033 3037 3042 3047
3099 3098 3097 3096 3095 3094 3093 3092 3091 3090 3089 3088 3086 3085 3084 3083 3083 3082 3081 3081 3080 3079 3077 3076 3075 3074 3072 3071 3070 3069 3069 3068 3066 3065 3064 3064 3063 3063 3062 3062 3061 3061 3060 3060 3060 3060 3060 3059 3057 3054 3054 3053 3052 3051 3051 3051 3052 3052 3052 3052 3052 3051 3050 3049 3045 3042 3041 3037 3032 3029 3023 3018 3016 3014 3011 3010 3012 3013 3014 3016 3019 3022 3025 3027 3031 3035 3039 3044
3098 3097 3096 3095 3094 3093 3092 3091 3090 3089 3088 3087 3086 3084 3083 3082 3081 3081 3080 3079 3079 3078 3077 3075 3074 3073 3072 3070 3069 3068 3067 3067 3066 3065 3064 3063 3063 3062 3062 3061 3061 3061 3060 3060 3060 3060 3059 3058 3057 3055 3053 3052 3050 3050 3050 3050 3050 3050 3050 3049 3049 3049 3049 3048 3042 3038 3038 3036 3033 3030 3024 3017 3014 3012 3008 3007 3009 3011 3013 3014 3016 3020 3023 3026 3029 3033 3037 3042
3097 3096 3095 3094 3092 3091 3090 3089 3089 3088 3087 3086 3085 3083 3082 3081 3080 3079 3079 3078 3077 3077 3076 3075 3073 3072 3071 3070 3069 3067 3066 3065 3065 3064 3063 3062 3062 3061 3061 3060 3060 3060 3060 3059 3059 3059 3059 3058 3056 3054 3052 3051 3050 3049 3049 3049 3049 3049 3048 3047 3047 3046 3047 3046 3041 3037 3036 3034 3031 3030 3025 3018 3014 3010 3007 3005 3007 3009 3012 3013 3015 3018 3022 3025 3028 3032 3035 3039
3096 3095 3094 3092 3091 3090 3089 3088 3087 3087 3086 3084 3083 3082 3081 3080 3079 3078 3077 3077 3076 3075 3074 3074 3073 3071 3070 3069 3068 3067 3066 3065 3063 3063 3062 3061 3061 3060 3060 3060 3059 3059 3058 3058 3058 3058 3057 3056 3055 3053 3051 3050 3049 3048 3048 3048 3047 3046 3044 3044 3044 3043 3043 3042 3040 3038 3036 3032 3029 3028 3025 3018 3014 3011 3008 3006 3006 3009 3011 3013 3014 3017 3020 3023 3026 3029 3033 3036
3094 3093 3093 3091 3090 3089 3088 3087 3086 3085 3084 3083 3082 3081 3080 3079 3078 3077 3076 3076 3075 3074 3073 3072 3071 3070 3069 3069 3067 3067 3066 3064 3063 3062 3061 3060 3060 3059 3059 3059 3058 3057 3057 3056 3056 3056 3055 3055 3054 3052 3051 3049 3047 3047 3046 3045 3045 3043 3041 3041 3040 3039 3040 3040 3038 3038 3035 3030 3028 3027 3023 3018 3015 3014 3011 3008 3008 3009 3011 3013 3015 3017 3019 3022 3025 3028 3031 3034
3093 3092 3091 3090 3089 3088 3087 3086 3085 3084 3083 3082 3081 3080 3079 3078 3077 3076 3075 3074 3073 3072 3071 3071 3070 3069 3068 3068 3067 3066 3065 3064 3063 3062 3060 3060 3059 3059 3058 3058 3057 3057 3056 3055 3055 3054 3053 3053 3052 3052 3051 3049 3046 3045 3045 3044 3043 3041 3039 3039 3039 3037 3038 3038 3037 3037 3033 3028 3027 3026 3022 3018 3017 3015 3013 3011 3010 3010 3011 3013 3015 3017 3019 3022 3024 3027 3031 3033
3091 3090 3090 3089 3088 3087 3086 3085 3084 3083 3081 3080 3079 3078 3077 3076 3075 3074 3073 3072 3072 3071 3070 3069 3068 3068 3067 3066 3065 3065 3064 3063 3062 3061 3060 3059 3058 3058 3057 3056 3056 3055 3055 3054 3054 3053 3051 3049 3049 3049 3048 3046 3044 3043 3043 3042 3041 3039 3037 3037 3037 3036 3036 3036 3035 3033 3030 3027 3025 3023 3021 3018 3017 3016 3013 3013 3012 3012 3012 3013 3014 3017 3019 3021 3024 3027 3030 3032
3089 3088 3088 3087 3086 3085 3084 3084 3083 3081 3080 3079 3078 3077 3076 3075 3074 3073 3072 3071 3070 3069 3069 3068 3067 3066 3066 3065 3064 3063 3062 3061 3060 3059 3059 3058 3057 3056 3056 3055 3054 3054 3053 3053 3052 3051 3049 3046 3045 3046 3044 3042 3042 3041 3040 3040 3038 3037 3036 3034 3034 3034 3033 3033 3031 3028 3028 3027 3023 3020 3019 3018 3016 3015 3014 3013 3013 3012 3012 3012 3014 3016 3018 3021 3023 3025 3028 3030
3086 3086 3086 3085 3084 3083 3082 3082 3081 3080 3079 3078 3076 3075 3075 3073 3073 3072 3071 3069 3069 3068 3067 3066 3066 3065 3064 3064 3062 3061 3061 3060 3059 3057 3057 3056 3056 3055 3054 3053 3053 3052 3052 3051 3051 3050 3048 3044 3043 3043 3041 3039 3039 3038 3037 3036 3034 3033 3033 3032 3031 3031 3029 3028 3026 3025 3026 3025 3020 3017 3018 3016 3015 3015 3015 3014 3013 3013 3012 3012 3013 3015 3017 3019 3021 3023 3025 3027
3084 3083 3083 3082 3082 3081 3080 3080 3079 3078 3077 3076 3075 3074 3073 3072 3071 3070 3069 3068 3067 3067 3066 3065 3064 3064 3063 3062 3061 3060 3059 3059 3057 3056 3055 3055 3054 3053 3052 3051 3051 3051 3050 3050 3049 3049 3046 3042 3041 3041 3038 3036 3036 3036 3034 3033 3030 3028 3028 3027 3027 3027 3026 3024 3022 3023 3024 3021 3017 3017 3016 3014 3014 3015 3015 3014 3014 3013 3013 3013 3013 3014 3016 3018 3020 3022 3024 3025
3081 3081 3080 3079 3078 3078 3078 3077 3077 3076 3075 3074 3073 3072 3072 3071 3070 3069 3068 3067 3065 3064 3064 3063 3063 3062 3061 3060 3059 3058 3058 3057 3056 3055 3054 3053 3052 3052 3051 3049 3049 3049 3048 3047 3047 3047 3045 3041 3040 3040 3036 3032 3033 3033 3031 3030 3028 3025 3023 3022 3022 3022 3021 3021 3020 3020 3020 3017 3016 3016 3015 3013 3014 3014 3014 3014 3014 3014 3014 3013 3014 3014 3015 3017 3019 3021 3023 3025
3077 3077 3077 3076 3074 3074 3074 3075 3074 3073 3072 3072 3072 3071 3070 3069 3068 3067 3066 3065 3064 3062 3062 3062 3061 3060 3059 3058 3058 3057 3056 3055 3054 3053 3052 3051 3050 3050 3049 3048 3047 3047 3046 3046 3045 3044 3043 3040 3040 3040 3035 3030 3030 3031 3029 3028 3026 3022 3019 3018 3018 3017 3017 3017 3017 3017 3017 3015 3015 3015 3014 3012 3013 3013 3014 3014 3014 3014 3014 3014 3014 3015 3015 3016 3018 3020 3021 3023
3074 3074 3073 3072 3069 3069 3070 3071 3071 3070 3069 3070 3070 3069 3068 3067 3066 3066 3064 3062 3062 3061 3060 3060 3059 3058 3057 3056 3056 3055 3054 3053 3053 3052 3050 3049 3048 3047 3047 3046 3046 3045 3044 3044 3043 3041 3041 3039 3038 3039 3035 3030 3030 3030 3029 3028 3025 3019 3016 3016 3016 3016 3016 3015 3015 3015 3015 3014 3013 3012 3011 3011 3012 3013 3013 3013 3014 3014 3014 3014 3015 3015 3015 3016 3017 3019 3020 3022